[[{"header":{"parameterUnit":"m.s-1","parameterCategory":1,"la1":30.2991,"la2":30.254,"lo1":-89.0895,"lo2":-89.0444,"dy":0.0017,"dx":0.0017,"nx":28,"ny":28,"refTime":"2024-05-08T03:00:00:Z","depth":0,"parameterNumber":2,"parameterNumberName":"U-component_of_WINDS"},"data":[0,0,0,0,0,0,0,0,0,0,0,0,0,0,0,0,0,0,0,0,0,0,0,0,0,0,0,0,0,0,0,0,0,0,0,0,0,0,0,0,0,0,0,0,0,0,0,0,0,0,0,0,0,0,0,0,0,0,-0.3354,-0.3354,0,-0.332,-0.3319,-0.3319,-0.3304,-0.3304,-0.3304,-0.3304,-0.3265,-0.3264,-0.3263,0,0,0,0,0,0,0,0,0,0,0,0,0,-0.3403,-0.3402,-0.3354,-0.3353,-0.3353,-0.332,-0.3319,-0.3319,-0.3304,-0.3304,-0.3304,-0.3304,-0.3265,-0.3264,-0.3263,0,0,0,0,0,0,0,0,0,0,0,0,0,-0.3376,-0.3402,-0.3354,-0.3342,-0.334,-0.332,-0.3319,-0.3319,-0.3304,-0.3304,-0.3304,-0.3304,-0.3266,-0.3264,-0.3263,-0.3251,0,0,-0.3258,-0.3257,0,0,0,0,0,0,0,0,-0.3378,-0.3375,-0.3344,-0.3342,-0.3341,-0.3316,-0.3322,-0.3296,-0.3304,-0.3317,-0.3304,-0.3304,-0.3282,-0.3279,-0.3272,-0.3249,-0.3248,-0.3258,-0.3257,-0.3256,-0.3255,0,0,0,0,0,0,0,-0.338,-0.3376,-0.334,-0.3343,-0.3341,-0.3337,-0.3333,-0.3317,-0.3299,-0.3316,-0.3315,-0.3311,-0.3281,-0.3274,-0.3271,-0.3247,-0.3258,-0.3256,-0.3255,-0.3255,-0.3213,-0.3213,0,0,0,0,0,0,-0.3384,-0.3378,-0.3341,-0.3339,-0.336,-0.3336,-0.3332,-0.3324,-0.33,-0.3296,-0.3311,-0.3311,-0.3276,-0.3273,-0.327,-0.3255,-0.3256,-0.3254,-0.3253,-0.3213,-0.3213,-0.3213,0,0,0,0,0,0,-0.3385,-0.3381,-0.3343,-0.3358,-0.3353,-0.3335,-0.3326,-0.3323,-0.3316,-0.3296,-0.3292,-0.3307,-0.3276,-0.3272,-0.3256,-0.3253,-0.3254,-0.3252,-0.3213,-0.3213,-0.3213,-0.3224,0,0,0,0,0,0,-0.3387,-0.3382,-0.3378,-0.3358,-0.3352,-0.3331,-0.3326,-0.3322,-0.3314,-0.3313,-0.3291,-0.3288,-0.3276,-0.3259,-0.3255,-0.3251,-0.3251,-0.3213,-0.3213,-0.3213,-0.3224,-0.3225,-0.3225,0,0,0,0,0,-0.3389,-0.3382,-0.3378,-0.3373,-0.3347,-0.3331,-0.3327,-0.3315,-0.3314,-0.3309,-0.3296,-0.3289,-0.3254,-0.3257,-0.3252,-0.3248,-0.3214,-0.3213,-0.3213,-0.3224,-0.3225,-0.3225,0,0,0,0,0,0,-0.34,-0.3379,-0.3374,-0.3361,-0.3348,-0.3328,-0.3322,-0.3316,-0.3302,-0.3301,-0.3285,-0.328,-0.3266,-0.3255,-0.3259,-0.3236,-0.3233,-0.3232,-0.3243,-0.3243,-0.3244,-0.3247,-0.325,0,0,0,0,0,-0.3401,-0.339,-0.3372,-0.3362,-0.3356,-0.334,-0.3332,-0.3324,-0.331,-0.3304,-0.329,-0.3275,-0.326,-0.3251,-0.3237,-0.3223,-0.3218,-0.3217,-0.3218,-0.3218,-0.3217,-0.3209,-0.3208,-0.3212,-0.3212,-0.3212,0,0,-0.3403,-0.339,-0.3384,-0.3364,-0.3353,-0.3341,-0.3336,-0.3323,-0.3315,-0.3301,-0.3286,-0.3275,-0.3257,-0.3242,-0.3235,-0.3233,-0.3215,-0.3218,-0.3218,-0.3217,-0.3208,-0.3208,-0.3208,-0.3212,-0.3212,-0.3212,0,0,-0.34,-0.339,-0.338,-0.337,-0.3354,-0.3343,-0.3341,-0.3322,-0.3315,-0.33,-0.329,-0.3278,-0.3254,-0.3242,-0.3233,-0.3226,-0.3219,-0.3222,-0.3224,-0.3216,-0.3215,-0.3215,-0.3212,-0.3212,-0.3221,-0.3221,-0.3221,0,-0.3404,-0.3388,-0.3376,-0.3365,-0.3356,-0.3345,-0.3335,-0.3325,-0.3304,-0.3298,-0.3297,-0.3266,-0.3254,-0.3236,-0.3234,-0.3227,-0.3223,-0.3224,-0.3217,-0.3216,-0.3216,-0.3213,-0.3212,-0.3221,-0.3221,-0.3221,-0.3221,0,-0.3393,-0.3382,-0.3376,-0.3358,-0.3349,-0.3338,-0.3324,-0.3315,-0.3308,-0.3298,-0.3282,-0.3266,-0.3249,-0.3244,-0.3236,-0.3225,-0.3224,-0.322,-0.3217,-0.3216,-0.3213,-0.3212,-0.3222,-0.3222,-0.3222,-0.3222,0,0,-0.3397,-0.3373,-0.3371,-0.3363,-0.3344,-0.3335,-0.3323,-0.3308,-0.3301,-0.3287,-0.3276,-0.3257,-0.3253,-0.3242,-0.3233,-0.3226,-0.3221,-0.3222,-0.3221,-0.3222,-0.3208,-0.3211,-0.321,-0.3217,-0.3216,-0.3216,-0.3209,0,-0.3392,-0.3372,-0.3361,-0.3346,-0.3335,-0.3324,-0.3314,-0.3301,-0.3291,-0.328,-0.3268,-0.3255,-0.325,-0.3244,-0.3237,-0.3224,-0.3218,-0.3224,-0.3206,-0.3205,-0.3211,-0.3209,-0.3212,-0.3207,-0.3208,-0.3208,-0.3208,0,-0.3383,-0.3371,-0.3355,-0.3338,-0.3333,-0.3324,-0.3309,-0.3298,-0.3283,-0.3276,-0.3265,-0.3256,-0.3243,-0.3241,-0.3222,-0.3226,-0.3218,-0.3211,-0.321,-0.3208,-0.3206,-0.3206,-0.3204,-0.3204,-0.3206,-0.3206,-0.3206,0,-0.3387,-0.3367,-0.3354,-0.3347,-0.3327,-0.3322,-0.3313,-0.3298,-0.3289,-0.3275,-0.3269,-0.3254,-0.3245,-0.3233,-0.322,-0.322,-0.3202,-0.3199,-0.3195,-0.3196,-0.3192,-0.3192,-0.3188,-0.3187,-0.3187,-0.3187,-0.3187,0,-0.3383,-0.3373,-0.3356,-0.3348,-0.3337,-0.3324,-0.3313,-0.3303,-0.329,-0.328,-0.3269,-0.326,-0.3243,-0.3231,-0.322,-0.3206,-0.3202,-0.3195,-0.3193,-0.3196,-0.3197,-0.3191,-0.319,-0.3187,-0.3187,-0.3187,-0.3187,0,-0.3385,-0.3373,-0.3359,-0.3342,-0.3337,-0.333,-0.3314,-0.3306,-0.3296,-0.3283,-0.3279,-0.3262,-0.3247,-0.3233,-0.3213,-0.3206,-0.3192,-0.3188,-0.3197,-0.3196,-0.3192,-0.3193,-0.3184,-0.3182,-0.3182,-0.3182,-0.3182,0,-0.3383,-0.3375,-0.3358,-0.335,-0.3342,-0.3331,-0.3322,-0.3309,-0.3301,-0.3283,-0.3277,-0.3262,-0.3249,-0.3225,-0.3211,-0.3195,-0.3191,-0.3189,-0.3189,-0.3193,-0.3191,-0.3192,-0.3191,-0.319,-0.319,-0.319,-0.319,0,-0.338,-0.3375,-0.3364,-0.335,-0.3341,-0.3329,-0.3317,-0.3312,-0.3296,-0.3287,-0.3272,-0.3263,-0.3243,-0.3227,-0.321,-0.32,-0.3192,-0.319,-0.3188,-0.3192,-0.3198,-0.3194,-0.3198,-0.319,-0.319,-0.319,-0.319,-0.319,-0.338,-0.3373,-0.336,-0.3347,-0.3337,-0.3326,-0.3318,-0.3307,-0.3295,-0.3279,-0.3272,-0.3257,-0.3242,-0.3218,-0.3208,-0.3196,-0.3194,-0.3191,-0.3191,-0.319,-0.3191,-0.32,-0.3193,-0.3193,-0.3193,-0.3193,-0.3193,0,-0.3377,-0.3368,-0.3357,-0.3341,-0.3331,-0.3326,-0.3312,-0.3304,-0.3292,-0.3279,-0.3267,-0.325,-0.3235,-0.322,-0.3204,-0.3197,-0.3193,-0.3194,-0.3194,-0.3192,-0.3194,-0.3197,-0.3197,-0.3197,-0.3197,-0.3197,-0.3197,-0.3197,-0.3374,-0.3362,-0.3355,-0.3338,-0.3328,-0.3315,-0.3308,-0.3297,-0.3287,-0.3269,-0.3257,-0.3248,-0.3234,-0.3217,-0.3203,-0.3199,-0.3194,-0.3195,-0.319,-0.3192,-0.3191,-0.3191,-0.3194,-0.3194,-0.3194,-0.3189,-0.3189,-0.3189]},{"header":{"parameterUnit":"m.s-1","parameterCategory":1,"la1":30.2991,"la2":30.254,"lo1":-89.0895,"lo2":-89.0444,"dy":0.0017,"dx":0.0017,"nx":28,"ny":28,"refTime":"2024-05-08T03:00:00:Z","depth":0,"parameterNumber":3,"parameterNumberName":"V-component_of_WINDS"},"data":[0,0,0,0,0,0,0,0,0,0,0,0,0,0,0,0,0,0,0,0,0,0,0,0,0,0,0,0,0,0,0,0,0,0,0,0,0,0,0,0,0,0,0,0,0,0,0,0,0,0,0,0,0,0,0,0,0,0,4.1485,4.1487,0,4.1621,4.1622,4.1624,4.1655,4.1654,4.1654,4.1653,4.1788,4.1792,4.1796,0,0,0,0,0,0,0,0,0,0,0,0,0,4.125,4.1254,4.1485,4.1487,4.1488,4.162,4.1622,4.1624,4.1656,4.1654,4.1653,4.1652,4.1786,4.1792,4.1797,0,0,0,0,0,0,0,0,0,0,0,0,0,4.1365,4.1255,4.1485,4.152,4.1525,4.162,4.1622,4.1625,4.1656,4.1654,4.1653,4.1652,4.1785,4.1791,4.1798,4.1866,0,0,4.1818,4.1821,0,0,0,0,0,0,0,0,4.1359,4.1374,4.1513,4.1518,4.1523,4.162,4.1589,4.1706,4.1656,4.1606,4.1653,4.1651,4.1733,4.1744,4.1772,4.1873,4.1878,4.1819,4.1823,4.1825,4.1827,0,0,0,0,0,0,0,4.1351,4.1368,4.1539,4.1515,4.1521,4.1528,4.1543,4.1611,4.1675,4.161,4.1613,4.1629,4.1735,4.1765,4.1775,4.188,4.1818,4.1824,4.1828,4.1831,4.2045,4.2046,0,0,0,0,0,0,4.1337,4.1361,4.1534,4.1543,4.1436,4.1533,4.155,4.159,4.1675,4.1686,4.163,4.163,4.1755,4.1767,4.178,4.1867,4.1825,4.1832,4.1836,4.2043,4.2045,4.2047,0,0,0,0,0,0,4.1332,4.1352,4.1529,4.1453,4.1476,4.1539,4.1584,4.1593,4.1624,4.1689,4.1701,4.1649,4.1754,4.1771,4.1845,4.1872,4.1835,4.1841,4.2041,4.2044,4.2046,4.204,0,0,0,0,0,0,4.1325,4.135,4.1378,4.1453,4.148,4.1592,4.1585,4.1597,4.1636,4.1637,4.1711,4.1721,4.1754,4.1835,4.1852,4.1881,4.1846,4.2039,4.2042,4.2045,4.2038,4.2042,4.2046,0,0,0,0,0,4.1316,4.137,4.1379,4.14,4.1516,4.1594,4.1609,4.1647,4.1638,4.1666,4.1708,4.1719,4.1866,4.1842,4.1861,4.1893,4.2038,4.2041,4.2045,4.2037,4.2042,4.2046,0,0,0,0,0,0,4.1294,4.138,4.1391,4.1471,4.1525,4.1599,4.1635,4.1651,4.1708,4.1706,4.1749,4.1766,4.1837,4.1872,4.1844,4.1964,4.1952,4.1959,4.1939,4.1944,4.1947,4.1938,4.1852,0,0,0,0,0,4.1298,4.1356,4.1428,4.1491,4.1517,4.1572,4.1607,4.1632,4.1689,4.1712,4.1759,4.1814,4.1872,4.191,4.1967,4.2043,4.206,4.2074,4.2078,4.2081,4.2087,4.213,4.2138,4.2059,4.2059,4.2059,0,0,4.1308,4.1362,4.1395,4.1488,4.1532,4.159,4.1591,4.1651,4.1695,4.1721,4.1794,4.1831,4.1894,4.197,4.2006,4.2001,4.2112,4.2085,4.2087,4.2092,4.2135,4.2142,4.2149,4.2062,4.2062,4.2061,0,0,4.1355,4.1401,4.146,4.1505,4.1574,4.161,4.1623,4.1696,4.1722,4.1797,4.1818,4.1869,4.1968,4.2013,4.2049,4.2113,4.2126,4.213,4.215,4.2191,4.2198,4.2203,4.2227,4.2235,4.2136,4.2136,4.2136,0,4.1357,4.1446,4.1487,4.1548,4.1588,4.1615,4.1674,4.1716,4.1799,4.1825,4.1819,4.1946,4.199,4.2077,4.2093,4.2121,4.2138,4.2122,4.2194,4.22,4.2206,4.2229,4.2237,4.2137,4.2136,4.2136,4.2136,0,4.1447,4.1508,4.1547,4.1628,4.1672,4.1731,4.178,4.182,4.184,4.1877,4.1952,4.2007,4.2076,4.2099,4.2119,4.2189,4.2184,4.2185,4.2174,4.2213,4.2235,4.2244,4.2137,4.2137,4.2137,4.2137,0,0,4.1483,4.1587,4.1601,4.1638,4.1716,4.1764,4.1824,4.1894,4.1927,4.1983,4.2034,4.2119,4.2121,4.2161,4.2187,4.2223,4.2272,4.222,4.2222,4.2228,4.2352,4.2351,4.2361,4.228,4.2282,4.2284,4.2347,0,4.154,4.165,4.1689,4.178,4.1837,4.1864,4.1917,4.197,4.2005,4.2058,4.2096,4.2156,4.2154,4.2178,4.2216,4.2258,4.2297,4.2254,4.2328,4.233,4.2312,4.2373,4.2372,4.2429,4.2356,4.2358,4.2359,0,4.1621,4.1681,4.1778,4.1849,4.1875,4.1921,4.1988,4.2039,4.2099,4.2122,4.2168,4.2191,4.2254,4.2239,4.2326,4.2296,4.2329,4.2354,4.2357,4.2366,4.2347,4.2383,4.2448,4.2457,4.2373,4.2372,4.2371,0,4.1639,4.1743,4.1815,4.1846,4.1931,4.1963,4.2,4.2059,4.2099,4.2157,4.2183,4.2246,4.2281,4.233,4.2369,4.2354,4.2453,4.2441,4.2474,4.2473,4.2494,4.2492,4.2566,4.2514,4.2514,4.2514,4.2514,0,4.1699,4.1757,4.1824,4.1868,4.1934,4.1977,4.2041,4.2079,4.2132,4.2183,4.221,4.2257,4.2306,4.2359,4.239,4.2458,4.2474,4.2494,4.2501,4.2492,4.2489,4.2514,4.2511,4.2516,4.2516,4.2515,4.2515,0,4.173,4.1777,4.1857,4.1932,4.1952,4.1997,4.2061,4.2104,4.2141,4.2205,4.2223,4.228,4.2344,4.2389,4.247,4.2491,4.2565,4.2572,4.2546,4.2549,4.258,4.2577,4.2673,4.2688,4.2625,4.2626,4.2626,0,4.1765,4.1811,4.1891,4.1929,4.1966,4.2025,4.2066,4.211,4.2151,4.2224,4.2258,4.2325,4.2381,4.2482,4.253,4.2593,4.2602,4.2631,4.2611,4.2601,4.2603,4.26,4.2605,4.2634,4.2634,4.2635,4.2635,0,4.1824,4.1845,4.1904,4.1971,4.2019,4.2074,4.2128,4.2157,4.221,4.2255,4.2322,4.2365,4.245,4.2516,4.2583,4.262,4.2637,4.2641,4.2652,4.2643,4.2626,4.2637,4.2555,4.2639,4.2638,4.2638,4.2638,4.2638,4.1859,4.1901,4.1965,4.2029,4.2075,4.2126,4.2171,4.2214,4.2271,4.2344,4.2366,4.2436,4.2495,4.2588,4.2626,4.268,4.2678,4.2694,4.2698,4.2701,4.2702,4.2617,4.2693,4.2693,4.2693,4.2693,4.2693,0,4.1919,4.1962,4.2021,4.2097,4.2148,4.216,4.2221,4.2262,4.2324,4.2379,4.2433,4.251,4.2574,4.2628,4.2694,4.2727,4.2736,4.2743,4.2741,4.275,4.27,4.2684,4.2735,4.2735,4.2735,4.2735,4.2735,4.2735,4.1957,4.2029,4.2058,4.2154,4.2195,4.2265,4.2299,4.2346,4.239,4.2475,4.2529,4.2564,4.2618,4.2688,4.2747,4.2761,4.2784,4.279,4.2805,4.2758,4.2753,4.2748,4.2734,4.2794,4.2794,4.2851,4.2851,4.2851]}]]